This demonstration page uses our WeatherBlox Daily Observations layout. Learn more.

Left ArrowRight Arrow

39.01783, -85.05884

Hourly Observations for March 31, 2022

Temp ( °F °C ) Dew Point ( °F °C ) Humidity (%) Winds ( mph kmh ) Pressure ( in mb ) Visibility ( mi km ) Precip ( " mm )
12:28 am 00:28 Cloudy with Light Rain 65 18.3 54 12.2 68 68 WSW 25 41 29.41 996 6 10 0.00 0.00
12:52 am 00:52 Cloudy with Light Rain 64 17.8 56 13.3 75 75 SW 23 37 29.42 996 9 14 0.00 0.00
1:27 am 01:27 Cloudy with Light Rain 60 15.6 56 13.3 86 86 SSW 12 19 29.42 996 10 16 0.01 0.25
1:52 am 01:52 Cloudy with Light Rain 59 15 56 13.3 90 90 S 14 22 29.39 995 10 16 0.02 0.51
2:52 am 02:52 Cloudy with Light Rain 58 14.4 56 13.3 93 93 S 17 28 29.36 994 10 16 0.01 0.25
3:23 am 03:23 Cloudy 58 14.4 56 13.3 93 93 S 24 39 29.35 994 10 16 0.01 0.25
3:52 am 03:52 Cloudy 59 15 56 13.3 90 90 SSW 22 35 29.34 994 10 16 0.01 0.25
4:44 am 04:44 Mostly Cloudy 60 15.6 54 12.2 80 80 SSW 23 37 29.36 994 10 16 0.00 0.00
4:52 am 04:52 Mostly Cloudy 60 15.6 54 12.2 80 80 SSW 22 35 29.34 994 10 16 0.00 0.00
5:03 am 05:03 Cloudy 60 15.6 54 12.2 80 80 SSW 20 31 29.36 994 10 16 0.00 0.00
5:52 am 05:52 Mostly Cloudy 58 14.4 54 12.2 87 87 SSW 18 30 29.34 994 10 16 0.00 0.00
6:52 am 06:52 Cloudy 58 14.4 52 11.1 81 81 SW 15 24 29.35 994 10 16 0.00 0.00
7:01 am 07:01 Mostly Cloudy 58 14.4 53 11.7 84 84 SW 13 20 29.38 995 10 16 0.00 0.00
7:38 am 07:38 Cloudy with Heavy Rain 54 12.2 52 11.1 93 93 W 21 33 29.41 996 3 5 0.02 0.51
7:43 am 07:43 Cloudy with Rain 53 11.7 52 11.1 96 96 W 23 37 29.42 996 3 5 0.07 1.78
7:52 am 07:52 Cloudy with Light Rain 52 11.1 51 10.6 97 97 WSW 17 28 29.40 996 4 6 0.08 2.03
8:17 am 08:17 Cloudy 51 10.6 48 8.9 89 89 WSW 17 28 29.45 997 10 16 0.01 0.25
8:52 am 08:52 Cloudy 50 10 46 7.8 86 86 WSW 20 31 29.44 997 10 16 0.01 0.25
9:52 am 09:52 Cloudy 48 8.9 44 6.7 86 86 WSW 16 26 29.48 998 10 16 0.00 0.00
10:52 am 10:52 Cloudy 46 7.8 41 5 83 83 W 21 33 29.53 1000 10 16 0.00 0.00
11:52 am 11:52 Cloudy 45 7.2 41 5 86 86 W 16 26 29.55 1001 8 13 0.00 0.00
12:52 pm 12:52 Cloudy 45 7.2 38 3.3 77 77 WSW 17 28 29.56 1001 10 16 0.00 0.00
1:52 pm 13:52 Cloudy 45 7.2 36 2.2 71 71 SW 13 20 29.57 1002 10 16 0.00 0.00
2:52 pm 14:52 Cloudy 44 6.7 36 2.2 73 73 WSW 17 28 29.58 1002 10 16 0.00 0.00
3:52 pm 15:52 Cloudy 43 6.1 36 2.2 76 76 WSW 10 17 29.58 1002 10 16 0.00 0.00
4:52 pm 16:52 Cloudy with Drizzle 42 5.6 37 2.8 82 82 WSW 13 20 29.59 1002 9 14 0.00 0.00
5:52 pm 17:52 Cloudy 42 5.6 34 1.1 73 73 WSW 15 24 29.62 1003 10 16 0.00 0.00
6:52 pm 18:52 Cloudy 42 5.6 34 1.1 73 73 W 16 26 29.65 1004 10 16 0.00 0.00
7:52 pm 19:52 Cloudy 40 4.4 35 1.7 83 83 WSW 9 15 29.68 1005 9 14 0.00 0.00
8:52 pm 20:52 Cloudy 39 3.9 37 2.8 93 93 SW 12 19 29.71 1006 8 13 0.00 0.00
9:30 pm 21:30 Cloudy 40 4.4 37 2.8 89 89 WSW 10 17 29.76 1008 9 14 0.00 0.00
9:52 pm 21:52 Cloudy 39 3.9 37 2.8 93 93 WSW 8 13 29.74 1007 9 14 0.01 0.25
10:06 pm 22:06 Cloudy with Light Rain 39 3.9 38 3.3 96 96 W 13 20 29.78 1009 4 6 0.00 0.00
10:08 pm 22:08 Cloudy with Light Rain 39 3.9 38 3.3 96 96 W 13 20 29.78 1009 4 6 0.00 0.00
10:52 pm 22:52 Cloudy 38 3.3 36 2.2 93 93 WSW 10 17 29.75 1008 10 16 0.01 0.25
11:18 pm 23:18 Cloudy 38 3.3 36 2.2 93 93 WSW 10 17 29.78 1009 10 16 0.00 0.00
11:52 pm 23:52 Cloudy 38 3.3 36 2.2 93 93 SW 9 15 29.75 1008 10 16 0.00 0.00

Powered by AerisWeather